Location: Great Snoring
(52.8667°N, 0.8833°E)
Time: 18:05:09
(UTC+00:00)

Helios 1B - Pass Details

Date: 19 May 2025
Orbit: 608 x 610 km, 98.2° (Epoch: 23 June)

Event Time Altitude Azimuth Distance (km) Brightness Sun altitude
Rises 22:31:32 0° 15° (NNE) 2,888 9.0 -15.0°
Reaches altitude 10° 22:33:44 10° 16° (NNE) 1,978 8.0 -15.1°
Maximum altitude 22:38:03 83° 104° (ESE) 623 4.5 -15.4°
Enters shadow 22:40:38 24° 192° (SSW) 1,287 5.7 -15.5°
